FW5778 Weather Reports


time (UTC)temp
C
wind
direction
speed
KPH
gust
KPH
rain 1hr
cm
rain 24hr
cm
rain mn
cm
humidity
%
barometer
mb
20260509005545 24 319 4.8 11.3 0.00 0.00 0.00 18 1014.0
20260509005048 24 46 3.2 11.3 0.00 0.00 0.00 18 1014.0
20260509004544 24 12 3.2 16.1 0.00 0.00 0.00 18 1014.0
20260509004044 24 44 9.7 16.1 0.00 0.00 0.00 18 1014.1
20260509003543 23 37 11.3 16.1 0.00 0.00 0.00 19 1014.1
20260509003047 23 337 4.8 12.9 0.00 0.00 0.00 19 1014.2
20260509002543 23 360 4.8 11.3 0.00 0.00 0.00 19 1014.2
20260509002042 23 37 6.4 17.7 0.00 0.00 0.00 19 1014.2
20260509001544 23 17 8.0 17.7 0.00 0.00 0.00 19 1014.3
20260509001042 23 25 9.7 17.7 0.00 0.00 0.00 19 1014.3
20260509000544 23 3 8.0 19.3 0.00 0.00 0.00 19 1014.3
20260509000043 23 2 6.4 16.1 0.00 0.00 0.00 19 1014.4
20260508235540 23 46 9.7 19.3 0.00 0.00 0.00 19 1014.4
20260508235039 23 9 8.0 19.3 0.00 0.00 0.00 19 1014.4
20260508234541 23 30 8.0 17.7 0.00 0.00 0.00 19 1014.4
20260508234039 23 15 4.8 22.5 0.00 0.00 0.00 19 1014.4
20260508233539 23 332 12.9 22.5 0.00 0.00 0.00 19 1014.4
20260508233041 23 10 9.7 17.7 0.00 0.00 0.00 19 1014.5
20260508232539 23 309 12.9 17.7 0.00 0.00 0.00 18 1014.5
20260508232041 23 333 6.4 16.1 0.00 0.00 0.00 19 1014.5
20260508231539 23 26 9.7 20.9 0.00 0.00 0.00 19 1014.5
20260508231036 23 59 14.5 20.9 0.00 0.00 0.00 19 1014.6
20260508230536 23 355 9.7 22.5 0.00 0.00 0.00 19 1014.5
20260508230043 23 28 11.3 24.1 0.00 0.00 0.00 19 1014.6
20260508225535 23 347 9.7 24.1 0.00 0.00 0.00 20 1014.7
20260508225035 23 56 12.9 24.1 0.00 0.00 0.00 19 1014.7
20260508224537 23 10 14.5 24.1 0.00 0.00 0.00 19 1014.9
20260508224037 23 56 9.7 25.7 0.00 0.00 0.00 19 1014.9
20260508223533 23 313 14.5 25.7 0.00 0.00 0.00 19 1015.0
20260508223035 23 285 12.9 25.7 0.00 0.00 0.00 20 1014.9
20260508222532 23 283 14.5 25.7 0.00 0.00 0.00 20 1015.0
20260508222031 23 335 12.9 25.7 0.00 0.00 0.00 20 1015.1
20260508221531 23 357 11.3 22.5 0.00 0.00 0.00 19 1015.2
20260508221029 23 1 14.5 29.0 0.00 0.00 0.00 20 1015.3
20260508220528 23 40 14.5 29.0 0.00 0.00 0.00 20 1015.3
20260508215528 23 328 11.3 29.0 0.00 0.00 0.00 21 1015.4
20260508215027 23 12 12.9 25.7 0.00 0.00 0.00 20 1015.5
20260508214525 23 16 11.3 25.7 0.00 0.00 0.00 20 1015.6
20260508214026 23 320 14.5 22.5 0.00 0.00 0.00 20 1015.7
20260508213524 23 27 8.0 27.4 0.00 0.00 0.00 21 1015.6
20260508213024 23 23 16.1 27.4 0.00 0.00 0.00 20 1015.6
20260508212523 22 342 14.5 27.4 0.00 0.00 0.00 21 1015.8
20260508212022 22 304 16.1 27.4 0.00 0.00 0.00 21 1015.8
20260508211524 22 13 14.5 27.4 0.00 0.00 0.00 21 1016.0
20260508211021 22 34 14.5 27.4 0.00 0.00 0.00 20 1016.0
20260508210520 22 23 12.9 30.6 0.00 0.00 0.00 21 1016.1
20260508210020 22 15 14.5 32.2 0.00 0.00 0.00 21 1016.1
20260508205519 22 30 16.1 32.2 0.00 0.00 0.00 21 1016.1
20260508205021 22 23 17.7 29.0 0.00 0.00 0.00 21 1016.2
20260508204521 22 25 17.7 30.6 0.00 0.00 0.00 21 1016.3
20260508204022 22 12 17.7 33.8 0.00 0.00 0.00 21 1016.3
20260508203518 22 32 14.5 40.2 0.00 0.00 0.00 21 1016.3
20260508203018 22 1 14.5 37.0 0.00 0.00 0.00 21 1016.3
20260508202519 22 311 14.5 37.0 0.00 0.00 0.00 22 1016.3
20260508202018 22 8 16.1 30.6 0.00 0.00 0.00 22 1016.4
20260508201521 22 340 12.9 38.6 0.00 0.00 0.00 22 1016.4
20260508201015 22 27 19.3 38.6 0.00 0.00 0.00 21 1016.4
20260508200516 22 345 17.7 33.8 0.00 0.00 0.00 21 1016.5
20260508200016 22 326 17.7 38.6 0.00 0.00 0.00 22 1016.5
20260508195514 22 342 17.7 38.6 0.00 0.00 0.00 22 1016.5
20260508195016 22 10 20.9 37.0 0.00 0.00 0.00 21 1016.4
20260508194514 22 28 19.3 33.8 0.00 0.00 0.00 22 1016.5
20260508194014 21 347 12.9 33.8 0.00 0.00 0.00 22 1016.6
20260508193514 22 18 14.5 27.4 0.00 0.00 0.00 21 1016.6
20260508193013 22 316 11.3 32.2 0.00 0.00 0.00 23 1016.7
20260508192513 21 3 16.1 32.2 0.00 0.00 0.00 23 1016.6
20260508192013 22 24 12.9 29.0 0.00 0.00 0.00 23 1016.8
20260508191517 21 21 14.5 30.6 0.00 0.00 0.00 23 1016.7
20260508191012 21 6 19.3 32.2 0.00 0.00 0.00 22 1016.7
20260508190513 21 10 11.3 32.2 0.00 0.00 0.00 23 1016.8
20260508190013 21 39 12.9 33.8 0.00 0.00 0.00 24 1016.8
20260508185511 21 353 19.3 35.4 0.00 0.00 0.00 22 1016.9
20260508185011 22 340 17.7 35.4 0.00 0.00 0.00 22 1017.0
20260508184516 22 11 16.1 32.2 0.00 0.00 0.00 22 1017.0
20260508184010 21 9 16.1 30.6 0.00 0.00 0.00 23 1017.0
20260508183510 21 20 17.7 32.2 0.00 0.00 0.00 24 1017.2
20260508183011 21 356 16.1 32.2 0.00 0.00 0.00 23 1017.1
20260508182510 21 27 19.3 30.6 0.00 0.00 0.00 22 1017.1
20260508182012 22 297 14.5 30.6 0.00 0.00 0.00 23 1017.2
20260508181510 22 295 12.9 30.6 0.00 0.00 0.00 24 1017.1
20260508181009 22 345 17.7 30.6 0.00 0.00 0.00 23 1017.2
20260508180509 22 30 12.9 29.0 0.00 0.00 0.00 23 1017.2
20260508180010 22 328 14.5 32.2 0.00 0.00 0.00 24 1017.2
20260508175507 21 354 16.1 32.2 0.00 0.00 0.00 24 1017.3
20260508175006 22 311 12.9 29.0 0.00 0.00 0.00 24 1017.3
20260508174516 21 332 16.1 30.6 0.00 0.00 0.00 24 1017.3
20260508174004 21 334 12.9 30.6 0.00 0.00 0.00 25 1017.4
20260508173503 21 14 14.5 29.0 0.00 0.00 0.00 25 1017.5
20260508173001 21 53 12.9 24.1 0.00 0.00 0.00 28 1017.6
20260508172503 20 2 8.0 17.7 0.00 0.00 0.00 29 1017.7
20260508172100 20 24 6.4 22.5 0.00 0.00 0.00 30 1017.7
20260508171600 20 39 16.1 22.5 0.00 0.00 0.00 30 1017.7
20260508171103 20 8 8.0 19.3 0.00 0.00 0.00 31 1017.6
20260508170558 20 55 6.4 19.3 0.00 0.00 0.00 32 1017.6
20260508170100 20 348 6.4 17.7 0.00 0.00 0.00 32 1017.6
20260508165556 20 357 4.8 22.5 0.00 0.00 0.00 32 1017.6
20260508165057 20 9 12.9 22.5 0.00 0.00 0.00 32 1017.6
20260508164557 20 1 11.3 17.7 0.00 0.00 0.00 31 1017.5
20260508164057 20 3 6.4 14.5 0.00 0.00 0.00 31 1017.6
20260508163600 20 336 4.8 14.5 0.00 0.00 0.00 32 1017.6
20260508163056 20 74 4.8 16.1 0.00 0.00 0.00 30 1017.6
20260508162555 20 47 9.7 16.1 0.00 0.00 0.00 31 1017.5
20260508162057 20 27 4.8 12.9 0.00 0.00 0.00 32 1017.5
20260508161556 19 68 6.4 12.9 0.00 0.00 0.00 33 1017.5
20260508161054 19 91 6.4 11.3 0.00 0.00 0.00 32 1017.5
20260508160556 19 39 4.8 11.3 0.00 0.00 0.00 33 1017.5
20260508160055 19 47 6.4 9.7 0.00 0.00 0.00 32 1017.5
20260508155555 19 323 3.2 8.0 0.00 0.00 0.00 32 1017.5
20260508155054 19 49 3.2 9.7 0.00 0.00 0.00 34 1017.5
20260508154553 20 61 1.6 9.7 0.00 0.00 0.00 32 1017.5
20260508154051 20 91 0.0 1.6 0.00 0.00 0.00 33 1017.5
20260508153551 19 358 0.0 1.6 0.00 0.00 0.00 33 1017.5
20260508153051 19 121 0.0 1.6 0.00 0.00 0.00 35 1017.5
20260508152551 18 207 0.0 0.0 0.00 0.00 0.00 34 1017.5
20260508152048 18 115 0.0 4.8 0.00 0.00 0.00 35 1017.5
20260508151547 18 123 0.0 4.8 0.00 0.00 0.00 38 1017.4
20260508151046 18 110 0.0 4.8 0.00 0.00 0.00 37 1017.3
20260508150545 18 126 0.0 4.8 0.00 0.00 0.00 37 1017.3
20260508150044 18 129 1.6 6.4 0.00 0.00 0.00 36 1017.3
20260508145544 18 110 3.2 6.4 0.00 0.00 0.00 36 1017.3
20260508145042 17 123 0.0 4.8 0.00 0.00 0.00 38 1017.3
20260508144541 17 122 1.6 4.8 0.00 0.00 0.00 38 1017.3
20260508144041 17 151 0.0 3.2 0.00 0.00 0.00 38 1017.3
20260508143540 17 115 0.0 3.2 0.00 0.00 0.00 39 1017.3
20260508143040 17 100 0.0 0.0 0.00 0.00 0.00 41 1017.3
20260508142539 17 86 0.0 0.0 0.00 0.00 0.00 41 1017.3
20260508142039 17 102 0.0 0.0 0.00 0.00 0.00 41 1017.2
20260508141548 17 127 0.0 0.0 0.00 0.00 0.00 40 1017.3
20260508141037 17 127 0.0 0.0 0.00 0.00 0.00 41 1017.2
20260508140535 16 127 0.0 0.0 0.00 0.00 0.00 43 1017.2
20260508140037 15 122 0.0 0.0 0.00 0.00 0.00 44 1017.2
20260508135533 15 242 0.0 0.0 0.00 0.00 0.00 44 1017.2
20260508135031 14 242 0.0 0.0 0.00 0.00 0.00 45 1017.2
20260508134533 13 241 0.0 0.0 0.00 0.00 0.00 46 1017.1
20260508134030 13 241 0.0 4.8 0.00 0.00 0.00 47 1017.1
20260508133530 13 240 1.6 4.8 0.00 0.00 0.00 48 1017.0
20260508133029 12 255 1.6 4.8 0.00 0.00 0.00 49 1017.0
20260508132532 12 247 1.6 4.8 0.00 0.00 0.00 50 1017.0
20260508132029 11 245 1.6 4.8 0.00 0.00 0.00 51 1016.9
20260508131528 11 240 1.6 4.8 0.00 0.00 0.00 52 1017.0
20260508131028 11 238 1.6 4.8 0.00 0.00 0.00 52 1016.9
20260508130526 11 219 1.6 4.8 0.00 0.00 0.00 52 1016.8
20260508130029 11 229 1.6 4.8 0.00 0.00 0.00 53 1016.7
20260508125526 11 258 0.0 3.2 0.00 0.00 0.00 53 1016.7
20260508125026 10 242 0.0 1.6 0.00 0.00 0.00 54 1016.7
20260508124525 10 243 0.0 1.6 0.00 0.00 0.00 54 1016.7
20260508124023 11 243 0.0 3.2 0.00 0.00 0.00 53 1016.6
20260508123523 11 243 1.6 3.2 0.00 0.00 0.00 51 1016.5
20260508123022 11 250 1.6 3.2 0.00 0.00 0.00 51 1016.5
20260508122521 11 248 1.6 4.8 0.00 0.00 0.00 51 1016.4
20260508122022 11 272 1.6 4.8 0.00 0.00 0.00 50 1016.4
20260508121531 11 253 1.6 4.8 0.00 0.00 0.00 50 1016.3
20260508121018 11 248 1.6 3.2 0.00 0.00 0.00 49 1016.3
20260508120518 11 252 1.6 4.8 0.00 0.00 0.00 49 1016.3
20260508120018 11 245 1.6 4.8 0.00 0.00 0.00 48 1016.3
20260508115518 11 245 1.6 4.8 0.00 0.00 0.00 47 1016.2
20260508115017 11 255 1.6 4.8 0.00 0.00 0.00 47 1016.2
20260508114517 11 249 1.6 4.8 0.00 0.00 0.00 48 1016.2
20260508114021 11 246 3.2 4.8 0.00 0.00 0.00 48 1016.2
20260508113517 11 263 0.0 3.2 0.00 0.00 0.00 47 1016.2
20260508113017 11 266 0.0 4.8 0.00 0.00 0.00 47 1016.2
20260508112519 11 270 1.6 4.8 0.00 0.00 0.00 47 1016.2
20260508112014 11 236 1.6 4.8 0.00 0.00 0.00 47 1016.2
20260508111515 11 251 3.2 4.8 0.00 0.00 0.00 47 1016.1
20260508111014 11 248 1.6 4.8 0.00 0.00 0.00 47 1016.2
20260508110513 11 272 1.6 3.2 0.00 0.00 0.00 47 1016.2
20260508110017 11 276 1.6 3.2 0.00 0.00 0.00 46 1016.1
20260508105516 11 267 1.6 3.2 0.00 0.00 0.00 46 1016.1
20260508105014 11 257 1.6 3.2 0.00 0.00 0.00 45 1016.1
20260508104512 11 230 1.6 3.2 0.00 0.00 0.00 45 1016.0
20260508104011 11 202 0.0 1.6 0.00 0.00 0.00 45 1015.9
20260508103510 11 237 0.0 1.6 0.00 0.00 0.00 45 1015.8
20260508103010 12 250 0.0 1.6 0.00 0.00 0.00 44 1015.7
20260508102510 12 245 0.0 1.6 0.00 0.00 0.00 44 1015.8
20260508102010 12 245 0.0 3.2 0.00 0.00 0.00 44 1015.9
20260508101510 12 245 1.6 3.2 0.00 0.00 0.00 43 1015.8
20260508101010 12 251 1.6 3.2 0.00 0.00 0.00 43 1015.8
20260508100509 12 257 0.0 0.0 0.00 0.00 0.00 43 1015.8
20260508100008 12 250 0.0 1.6 0.00 0.00 0.00 44 1015.8
20260508095508 12 243 0.0 4.8 0.00 0.00 0.00 44 1015.8
20260508095009 12 240 1.6 4.8 0.00 0.00 0.00 44 1015.7
20260508094508 12 266 0.0 3.2 0.00 0.00 0.00 45 1015.7
20260508094009 11 249 1.6 4.8 0.00 0.00 0.00 46 1015.7
20260508093508 11 244 1.6 4.8 0.00 0.00 0.00 46 1015.6
20260508093008 11 245 1.6 3.2 0.00 0.00 0.00 47 1015.7
20260508092508 11 253 1.6 3.2 0.00 0.00 0.00 48 1015.6
20260508092007 12 243 1.6 3.2 0.00 0.00 0.00 48 1015.6
20260508091509 12 261 1.6 3.2 0.00 0.00 0.00 48 1015.7
20260508091005 12 234 1.6 3.2 0.00 0.00 0.00 47 1015.6
20260508090505 12 283 0.0 1.6 0.00 0.00 0.00 47 1015.6
20260508090004 12 283 0.0 3.2 0.00 0.00 0.00 46 1015.6
20260508085503 12 283 0.0 3.2 0.00 0.00 0.00 46 1015.6
20260508085006 12 283 0.0 0.0 0.00 0.00 0.00 46 1015.7
20260508084503 12 281 0.0 3.2 0.00 0.00 0.00 45 1015.7
20260508084003 12 264 0.0 3.2 0.00 0.00 0.00 45 1015.8
20260508083502 12 249 1.6 4.8 0.00 0.00 0.00 44 1015.7
20260508083002 13 245 1.6 4.8 0.00 0.00 0.00 43 1015.7
20260508082502 13 288 0.0 3.2 0.00 0.00 0.00 41 1015.8
20260508082001 13 288 0.0 6.4 0.00 0.00 0.00 40 1015.7
20260508081504 13 266 3.2 6.4 0.00 0.00 0.00 41 1015.8
20260508081005 13 245 3.2 6.4 0.00 0.00 0.00 44 1015.8
20260508080503 12 242 1.6 6.4 0.00 0.00 0.00 45 1015.8
20260508080001 12 243 1.6 4.8 0.00 0.00 0.00 46 1015.7
20260508075501 12 241 1.6 4.8 0.00 0.00 0.00 46 1015.7
20260508075100 12 258 1.6 3.2 0.00 0.00 0.00 46 1015.8
20260508074600 12 246 1.6 4.8 0.00 0.00 0.00 46 1015.8
20260508074100 13 250 3.2 4.8 0.00 0.00 0.00 45 1015.8
20260508073559 13 254 3.2 6.4 0.00 0.00 0.00 44 1015.8
20260508073058 13 250 4.8 6.4 0.00 0.00 0.00 44 1015.8
20260508072557 13 245 3.2 4.8 0.00 0.00 0.00 44 1015.8
20260508072059 13 234 1.6 3.2 0.00 0.00 0.00 45 1015.8
20260508071559 13 229 1.6 3.2 0.00 0.00 0.00 44 1015.7
20260508071056 13 140 0.0 4.8 0.00 0.00 0.00 42 1015.7
20260508070559 13 133 0.0 1.6 0.00 0.00 0.00 43 1015.7
20260508070056 13 129 0.0 1.6 0.00 0.00 0.00 43 1015.7
20260508065554 13 134 0.0 0.0 0.00 0.00 0.00 43 1015.7
20260508065052 14 231 0.0 0.0 0.00 0.00 0.00 42 1015.8
20260508064554 14 231 0.0 0.0 0.00 0.00 0.00 40 1015.7
20260508064054 14 231 0.0 0.0 0.00 0.00 0.00 41 1015.6
20260508063552 14 263 0.0 3.2 0.00 0.00 0.00 41 1015.6
20260508063102 14 265 0.0 4.8 0.00 0.00 0.00 41 1015.7
20260508062551 14 278 3.2 4.8 0.00 0.00 0.00 41 1015.7
20260508062051 14 248 1.6 6.4 0.00 0.00 0.00 41 1015.6
20260508061555 14 274 3.2 4.8 0.00 0.00 0.00 41 1015.7
20260508061050 14 256 1.6 3.2 0.00 0.00 0.00 41 1015.6
20260508060548 14 296 1.6 3.2 0.00 0.00 0.00 41 1015.6
20260508060054 14 328 0.0 4.8 0.00 0.00 0.00 42 1015.6
20260508055547 14 27 3.2 11.3 0.00 0.00 0.00 43 1015.4
20260508055049 14 41 6.4 11.3 0.00 0.00 0.00 42 1015.4
20260508054547 15 104 0.0 0.0 0.00 0.00 0.00 41 1015.2
20260508054046 15 104 0.0 4.8 0.00 0.00 0.00 40 1015.2
20260508053549 15 271 0.0 6.4 0.00 0.00 0.00 38 1015.2
20260508053047 15 273 3.2 8.0 0.00 0.00 0.00 39 1015.2
20260508052545 15 270 3.2 8.0 0.00 0.00 0.00 39 1015.2
20260508052047 15 240 3.2 8.0 0.00 0.00 0.00 39 1015.2
20260508051546 15 276 3.2 6.4 0.00 0.00 0.00 39 1015.1
20260508051046 15 269 1.6 4.8 0.00 0.00 0.00 40 1015.1
20260508050545 15 269 3.2 4.8 0.00 0.00 0.00 39 1015.1
20260508050047 15 259 1.6 6.4 0.00 0.00 0.00 40 1015.2
20260508045544 15 259 1.6 6.4 0.00 0.00 0.00 40 1015.2
20260508045048 15 278 1.6 3.2 0.00 0.00 0.00 39 1015.2
20260508044545 16 250 1.6 4.8 0.00 0.00 0.00 39 1015.1
20260508044045 16 239 3.2 6.4 0.00 0.00 0.00 38 1015.1
20260508043545 16 281 1.6 6.4 0.00 0.00 0.00 39 1015.2
20260508043044 16 251 3.2 6.4 0.00 0.00 0.00 38 1015.2
20260508042545 16 238 1.6 6.4 0.00 0.00 0.00 38 1015.2
20260508042044 16 239 1.6 6.4 0.00 0.00 0.00 38 1015.2
20260508041544 16 255 3.2 4.8 0.00 0.00 0.00 38 1015.2
20260508041044 16 245 3.2 4.8 0.00 0.00 0.00 38 1015.2
20260508040543 16 244 3.2 6.4 0.00 0.00 0.00 38 1015.2
20260508040050 16 252 1.6 4.8 0.00 0.00 0.00 38 1015.2
20260508035542 16 243 1.6 4.8 0.00 0.00 0.00 37 1015.1
20260508035042 16 262 1.6 4.8 0.00 0.00 0.00 37 1015.0
20260508034543 16 250 1.6 4.8 0.00 0.00 0.00 36 1014.9
20260508034042 17 267 3.2 6.4 0.00 0.00 0.00 36 1014.9
20260508033543 17 253 3.2 6.4 0.00 0.00 0.00 36 1015.0
20260508033042 17 274 3.2 6.4 0.00 0.00 0.00 35 1015.0
20260508032542 17 269 3.2 6.4 0.00 0.00 0.00 35 1014.9
20260508032041 17 245 1.6 4.8 0.00 0.00 0.00 34 1014.8
20260508031541 17 266 1.6 4.8 0.00 0.00 0.00 34 1014.8
20260508031042 18 258 1.6 4.8 0.00 0.00 0.00 33 1014.8
20260508030541 18 247 1.6 4.8 0.00 0.00 0.00 34 1014.7
20260508030041 18 247 0.0 4.8 0.00 0.00 0.00 33 1014.7
20260508025541 18 91 0.0 0.0 0.00 0.00 0.00 32 1014.7
20260508025040 19 91 0.0 0.0 0.00 0.00 0.00 31 1014.6
20260508024548 19 91 0.0 0.0 0.00 0.00 0.00 29 1014.6
20260508024040 19 91 0.0 0.0 0.00 0.00 0.00 30 1014.6
20260508023541 20 91 0.0 0.0 0.00 0.00 0.00 28 1014.6
20260508023040 20 91 0.0 0.0 0.00 0.00 0.00 27 1014.5
20260508022539 21 91 0.0 0.0 0.00 0.00 0.00 26 1014.5
20260508022039 21 91 0.0 0.0 0.00 0.00 0.00 25 1014.5
20260508021540 22 91 0.0 0.0 0.00 0.00 0.00 25 1014.5
20260508021039 22 90 0.0 0.0 0.00 0.00 0.00 24 1014.4
20260508020538 22 90 0.0 0.0 0.00 0.00 0.00 24 1014.5
20260508020039 22 90 0.0 0.0 0.00 0.00 0.00 24 1014.5
20260508015538 22 90 0.0 0.0 0.00 0.00 0.00 23 1014.4
20260508015039 22 75 0.0 3.2 0.00 0.00 0.00 24 1014.5
20260508014542 22 122 0.0 6.4 0.00 0.00 0.00 23 1014.5
20260508014037 22 100 3.2 8.0 0.00 0.00 0.00 23 1014.5
20260508013538 22 131 0.0 8.0 0.00 0.00 0.00 23 1014.5
20260508013040 22 82 0.0 8.0 0.00 0.00 0.00 23 1014.5
20260508012536 22 103 1.6 8.0 0.00 0.00 0.00 22 1014.5
20260508012039 23 95 1.6 4.8 0.00 0.00 0.00 22 1014.5
20260508011537 22 89 0.0 6.4 0.00 0.00 0.00 23 1014.6
20260508011036 22 57 3.2 8.0 0.00 0.00 0.00 22 1014.5
20260508010535 22 61 0.0 9.7 0.00 0.00 0.00 23 1014.5
20260508010036 22 111 4.8 9.7 0.00 0.00 0.00 23 1014.6